ICE417 EIDW-BIKF

Flight info

Callsign ICE417
Flight time N/A
Altitude 36000
Route SUROX8E SUROX DCT NIPIT DCT GOMUP/M077F360 DCT BREKI DCT BASLU BASLU3K
Aircraft B752/M-SDE2E3FGHIJ3J4J7RWXY/LB1

Departure

Time N/A
Airport Dublin Airport (EIDW)

Arrival

Time 2026-04-29 16:51
Airport Keflavik International Airport (BIKF)
Time Latitude Longitude Altitude Speed Heading
2026-04-29 16:46 64.14757 -22.51815 2348 ft 201 kts 251°
2026-04-29 16:46 64.14320 -22.54819 2215 ft 190 kts 250°
2026-04-29 16:46 64.13914 -22.57504 2165 ft 173 kts 248°
2026-04-29 16:46 64.13206 -22.59629 2164 ft 167 kts 212°
2026-04-29 16:47 64.12088 -22.60212 2091 ft 162 kts 188°
2026-04-29 16:47 64.10958 -22.60301 2113 ft 164 kts 189°
2026-04-29 16:47 64.09811 -22.60392 2086 ft 165 kts 188°
2026-04-29 16:47 64.08668 -22.60478 2008 ft 167 kts 188°
2026-04-29 16:48 64.07519 -22.60534 1782 ft 163 kts 187°
2026-04-29 16:48 64.06406 -22.60552 1607 ft 158 kts 186°
2026-04-29 16:48 64.05382 -22.60550 1400 ft 140 kts 186°
2026-04-29 16:48 64.04474 -22.60528 1189 ft 123 kts 187°
2026-04-29 16:49 64.03644 -22.60547 1029 ft 118 kts 187°
2026-04-29 16:49 64.02813 -22.60575 908 ft 117 kts 188°
2026-04-29 16:49 64.02003 -22.60614 765 ft 119 kts 184°
2026-04-29 16:49 64.01176 -22.60523 592 ft 117 kts 186°
2026-04-29 16:50 64.00368 -22.60554 420 ft 116 kts 185°
2026-04-29 16:50 63.99572 -22.60535 270 ft 113 kts 186°
2026-04-29 16:50 63.98789 -22.60545 166 ft 112 kts 186°
2026-04-29 16:50 63.98094 -22.60551 162 ft 79 kts 185°
2026-04-29 16:51 63.97795 -22.60535 159 ft 0 kts 177°
2026-04-29 16:51 63.97749 -22.60537 158 ft 20 kts 182°
2026-04-29 16:51 63.97605 -22.60559 156 ft 20 kts 179°
2026-04-29 16:51 63.97464 -22.60571 152 ft 19 kts 205°
2026-04-29 16:52 63.97449 -22.60840 148 ft 14 kts 287°
2026-04-29 16:52 63.97474 -22.60927 147 ft 10 kts 339°
2026-04-29 16:52 63.97581 -22.60945 149 ft 21 kts
2026-04-29 16:52 63.97806 -22.60952 150 ft 36 kts 359°
2026-04-29 16:53 63.98054 -22.60946 154 ft 34 kts
2026-04-29 16:53 63.98290 -22.60947 153 ft 34 kts 359°
2026-04-29 16:53 63.98472 -22.60949 150 ft 21 kts
2026-04-29 16:53 63.98664 -22.60947 150 ft 39 kts
2026-04-29 16:54 63.98830 -22.60951 149 ft 3 kts 359°
2026-04-29 16:54 63.98853 -22.61172 146 ft 42 kts 267°
2026-04-29 16:54 63.98850 -22.61914 143 ft 41 kts 269°
2026-04-29 16:54 63.98845 -22.62612 139 ft 44 kts 272°
2026-04-29 16:55 63.98856 -22.62890 139 ft 2 kts 331°
2026-04-29 16:55 63.99000 -22.62806 139 ft 57 kts 16°
2026-04-29 16:55 63.99261 -22.62666 139 ft 21 kts 10°
2026-04-29 16:55 63.99268 -22.62664 139 ft 14 kts 11°
2026-04-29 16:56 63.99274 -22.62653 139 ft 4 kts 53°
2026-04-29 16:56 63.99230 -22.62456 142 ft 26 kts 115°
2026-04-29 16:56 63.99190 -22.62019 143 ft 25 kts 45°
2026-04-29 16:56 63.99299 -22.61992 143 ft 14 kts 356°
2026-04-29 16:57 63.99393 -22.62001 143 ft 14 kts 340°
2026-04-29 16:57 63.99401 -22.62118 143 ft 6 kts 243°
2026-04-29 16:57 63.99387 -22.62175 143 ft 0 kts 239°